Flag for U.S.A. Weather past 2 weeks in Bowling Green, Kentucky, U.S.A.

Now
69 °F

Partly cloudy.


Feels Like: 69 °F
Forecast: 66 / 86 °F
Wind: 3 mph from South

Location: Glasgow Municipal Airport

Current Time: May 27, 2015 at 12:00:18 AM

Latest Report: May 26, 2015 at 11:10 PM


Visibility: 7 mi

Pressure: 30.11 "Hg

Humidity: 100%

Dew point: 69 °F

Location of Bowling GreenLocation

Historic Weather in Bowling Green — Graph

°F

Bowling Green temperature yesterday

Maximum temperature yesterday: 80 °F (at 12:10 PM)
Minimum temperature yesterday: 66 °F (at 1:30 AM)
Average temperature yesterday: 71 °F

Past Weeks' High & Low Weather Summary

 TemperatureHumidityPressure
High84 °F (May 15, 3:50 PM)100% (May 11, 11:35 PM)30.39 "Hg (May 11, 11:35 PM)
Low40 °F (May 22, 3:30 AM)26% (May 23, 2:10 PM)29.90 "Hg (May 20, 6:30 PM)
Average67 °F72%30.17 "Hg
* Reported May 11 10:10 PM — May 26 10:50 PM, Bowling Green, Weather by CustomWeather, © 2015

Note: Actual official high and low records may vary slightly from our data, if they occured in-between our weather recording intervals... More about our weather records

Advertising

Bowling Green weather history for previous 24 hours

 ConditionsComfort  
Time TempWeatherWind HumidityBarometerVisibility
10:50 PM
Tue, May 26
69 °FPassing clouds.6 mph100%30.10 "Hg10 mi
10:30 PM69 °FPartly cloudy.5 mph100%30.10 "Hg10 mi
10:10 PM69 °FPassing clouds.3 mph100%30.09 "Hg10 mi
9:50 PM69 °FPassing clouds.3 mph100%30.09 "Hg10 mi
9:10 PM69 °FClear.5 mph100%30.08 "Hg10 mi
8:50 PM69 °FClear.5 mph100%30.08 "Hg10 mi
8:30 PM69 °FClear.5 mph100%30.07 "Hg10 mi
8:10 PM69 °FClear.3 mph100%30.06 "Hg10 mi
7:50 PM70 °FSunny.5 mph98%30.06 "Hg10 mi
7:30 PM70 °FSunny.5 mph96%30.05 "Hg10 mi
7:10 PM70 °FSunny.3 mph96%30.05 "Hg10 mi
6:50 PM71 °FSunny.6 mph94%30.05 "Hg10 mi
6:30 PM72 °FSunny.8 mph90%30.05 "Hg10 mi
6:10 PM72 °FSunny.5 mph89%30.04 "Hg10 mi
5:50 PM72 °FSunny.6 mph85%30.04 "Hg10 mi
5:30 PM71 °FScattered clouds.5 mph86%30.04 "Hg10 mi
5:10 PM69 °FPartly sunny.7 mph95%30.04 "Hg10 mi
4:50 PM67 °FBroken clouds.6 mph98%30.05 "Hg10 mi
4:10 PM67 °FLight rain. Cloudy.6 mph96%30.06 "Hg7 mi
3:50 PM68 °FThunderstorms. Cloudy.13 mph93%30.06 "Hg5 mi
3:30 PM67 °FLight rain. Cloudy.9 mph93%30.06 "Hg7 mi
3:10 PM75 °FThundershowers. Broken clouds.8 mph72%30.04 "Hg10 mi
2:50 PM78 °FScattered clouds.13 mph71%30.04 "Hg10 mi
2:30 PM76 °FBroken clouds.10 mph83%30.04 "Hg10 mi
2:10 PM73 °FScattered clouds.9 mph90%30.05 "Hg10 mi
1:50 PM73 °FLight rain. Broken clouds.7 mph86%30.04 "Hg10 mi
1:30 PM77 °FHeavy rain. More clouds than sun.18 mph71%30.06 "Hg5 mi
1:10 PM79 °FLight rain. Broken clouds.13 mph67%30.06 "Hg10 mi
12:50 PM79 °FScattered clouds.15 mph66%30.07 "Hg10 mi
12:30 PM79 °FBroken clouds.14 mph65%30.08 "Hg10 mi
12:10 PM80 °FBroken clouds.14 mph64%30.08 "Hg10 mi
11:50 AM79 °FBroken clouds.16 mph66%30.08 "Hg10 mi
11:30 AM79 °FPartly sunny.9 mph67%30.08 "Hg10 mi
11:10 AM79 °FMostly cloudy.14 mph67%30.09 "Hg10 mi
10:50 AM78 °FMostly cloudy.9 mph69%30.08 "Hg10 mi
10:30 AM79 °FMostly cloudy.8 mph68%30.08 "Hg10 mi
10:10 AM79 °FPartly sunny.12 mph68%30.09 "Hg10 mi
9:50 AM78 °FPartly sunny.12 mph69%30.09 "Hg10 mi
9:30 AM77 °FOvercast.14 mph70%30.10 "Hg2 mi
9:10 AM77 °FPartly sunny.13 mph71%30.09 "Hg10 mi
8:50 AM76 °FPartly sunny.13 mph72%30.10 "Hg10 mi
8:30 AM75 °FScattered clouds.10 mph74%30.11 "Hg10 mi
8:10 AM74 °FScattered clouds.9 mph76%30.10 "Hg10 mi
7:50 AM72 °FScattered clouds.9 mph80%30.11 "Hg10 mi
7:30 AM70 °FScattered clouds.7 mph83%30.11 "Hg10 mi
7:10 AM69 °FSunny.6 mph86%30.11 "Hg10 mi
6:50 AM68 °FBroken clouds.5 mph86%30.12 "Hg10 mi
6:10 AM67 °FOvercast.6 mph88%30.11 "Hg10 mi
5:50 AM67 °FPartly sunny.5 mph90%30.11 "Hg10 mi
5:10 AM66 °FPassing clouds.6 mph92%30.10 "Hg10 mi
4:50 AM66 °FPassing clouds.7 mph92%30.10 "Hg10 mi
4:30 AM66 °FClear.5 mph93%30.11 "Hg10 mi
4:10 AM66 °FClear.3 mph95%30.10 "Hg10 mi
3:50 AM66 °FClear.3 mph95%30.10 "Hg10 mi
3:30 AM66 °FClear.6 mph95%30.10 "Hg10 mi
3:10 AM66 °FClear.6 mph94%30.10 "Hg10 mi
2:50 AM66 °FClear.5 mph94%30.10 "Hg10 mi
2:10 AM66 °FPassing clouds.3 mph95%30.11 "Hg10 mi
1:50 AM66 °FPassing clouds.3 mph95%30.11 "Hg10 mi
1:30 AM66 °FPassing clouds.3 mph97%30.12 "Hg10 mi
1:10 AM66 °FClear.No wind95%30.12 "Hg10 mi
12:50 AM66 °FClear.3 mph98%30.13 "Hg10 mi
12:30 AM66 °FClear.No wind97%30.13 "Hg10 mi
12:10 AM66 °FClear.3 mph99%30.13 "Hg10 mi
Weather by CustomWeather, © 2015

See weather overviewHow to use our weather pages